Regional Weather Roundup
Issued by NWS

Home | Current Version | Previous Version | Graphics & Text | Print | Product List | Glossary On
Versions: 1 2 3 4 5 6 7 8 9 10 11 12 13 14 15 16 17 18 19 20 21 22 23 24 25 26 27 28 29 30 31 32 33 34 35 36 37 38 39 40 41 42 43 44 45 46 47 48 49 50
000
ASUS43 KIND 211759
RWRIN

WEATHER ROUNDUP FOR INDIANA
NATIONAL WEATHER SERVICE INDIANAPOLIS IN
100 PM EST SUN JAN 21 2018

NOTE: "FAIR" INDICATES FEW OR NO CLOUDS BELOW 12,000 FEET WITH NO
SIGNIFICANT WEATHER AND/OR OBSTRUCTIONS TO VISIBILITY.

* - STATION DOES NOT REPORT WEATHER SUCH AS PRECIPITATION OR FOG.

+ - STATION NOT QUALITY CONTROLLED BY THE NATIONAL WEATHER SERVICE.
    USE DATA WITH CAUTION...ESPECIALLY DEWPOINT AND RELATIVE
    HUMIDITY OBSERVATIONS.

INZ001>003-010>013-019-020-211900-
NORTHWEST INDIANA

CITY           SKY/WX    TMP DP  RH WIND       PRES   REMARKS
GARY /AIRPORT/ CLOUDY    45  43  93 VRB3      29.96F FOG
KNOX *+        CLOUDY    41  41 100 S7        29.97F VSB 1/4
MONTICELLO +   FOG       42  40  95 S3        29.98F VSB<1/4
6HR MIN TEMP:  37; 6HR MAX TEMP:  42;


$$

LMZ046-743>745-211900-
SOUTHERN LAKE MICHIGAN

STATION/POSITION TIME  TEMP    WIND        PRES    WAVE
                       AIR SEA DIR/SP/G            HT
                 (UTC) (F)     (DEG/KT/KT) (MB)    (FT)
BURNS HARBOR     1740   41     190/  9/ 11 1015.2F
MICHIGAN CITY    1730   40     140/  5/  7   N/A

$$

INZ004-005-014>016-021>024-211900-
NORTH CENTRAL INDIANA

CITY           SKY/WX    TMP DP  RH WIND       PRES   REMARKS
GOSHEN         FOG       41  41 100 S7        29.98F VSB 1/4
6HR MIN TEMP:  36; 6HR MAX TEMP:  41;

PERU/GRISSOM   FOG       44  44 100 S12       29.97F VSB 3/8
6HR MIN TEMP:  38; 6HR MAX TEMP:  44;

SOUTH BEND     FOG       42  41  96 S3        29.98F VSB 1
6HR MIN TEMP:  36; 6HR MAX TEMP:  42;


$$

INZ006>009-017-018-025>027-211900-
NORTHEAST INDIANA

CITY           SKY/WX    TMP DP  RH WIND       PRES   REMARKS
FORT WAYNE     FOG       43  43 100 SW5       30.00F VSB 1/4
6HR MIN TEMP:  38; 6HR MAX TEMP:  44; 6HR PCP: TRACE;

KENDALLVILLE + FOG       40  40 100 S5        29.99F VSB<1/4 WCI  37

$$

INZ028-029-035-036-043>045-051>053-211900-
WEST CENTRAL INDIANA

CITY           SKY/WX    TMP DP  RH WIND       PRES   REMARKS
LAFAYETTE      FOG       45  45 100 CALM      29.98F VSB 1/4
6HR MIN TEMP:  38; 6HR MAX TEMP:  45;

TERRE HAUTE    CLOUDY    48  46  93 S13       30.01F FOG
6HR MIN TEMP:  45; 6HR MAX TEMP:  48;


$$

INZ030>032-037>040-046>048-054>057-064-065-211900-
CENTRAL INDIANA

CITY           SKY/WX    TMP DP  RH WIND       PRES   REMARKS
COLUMBUS       CLOUDY    50  45  81 S14       30.05F
GREENWOOD *+   CLOUDY    51  47  86 SW8       30.03F
INDIANAPOLIS   FOG       49  48  97 S10       30.02F VSB 1
6HR MIN TEMP:  40; 6HR MAX TEMP:  49;

-EAGLE CREEK   FOG       48  47  96 S6        30.01F VSB 1
6HR MIN TEMP:  41; 6HR MAX TEMP:  48;

MT COMFORT *+  CLOUDY    46  46 100 S8        30.03F
SHELBYVILLE    NOT AVBL

$$

INZ033-034-041-042-049-050-058-059-211900-
EAST CENTRAL INDIANA

CITY           SKY/WX    TMP DP  RH WIND       PRES   REMARKS
MUNCIE         CLOUDY    48  46  93 S10       30.01F FOG
6HR MIN TEMP:  43; 6HR MAX TEMP:  48;

RICHMOND +     CLOUDY    45  45 100 SW10      30.05F

$$

INZ060-061-067>069-081>083-085>088-211900-
SOUTHWEST INDIANA

CITY           SKY/WX    TMP DP  RH WIND       PRES   REMARKS
EVANSVILLE     CLOUDY    51  49  92 SW10      30.05F
6HR MIN TEMP:  40; 6HR MAX TEMP:  51;

HUNTINGBURG +  CLOUDY    51  47  86 S12       30.06F
6HR MIN TEMP:  46; 6HR MAX TEMP:  52;


$$

INZ062-063-066-070>080-084-089>092-211900-
SOUTH CENTRAL AND SOUTHEAST INDIANA

CITY           SKY/WX    TMP DP  RH WIND       PRES   REMARKS
BLOOMINGTON    CLOUDY    51  47  86 S7        30.03F
6HR MIN TEMP:  48; 6HR MAX TEMP:  52;

SEYMOUR +      CLOUDY    54  46  76 SW9       30.06F

$$





USA.gov is the U.S. government's official web portal to all federal, state and local government web resources and services.